TJS-12

Last updated on Wed Sep 09 2026 00:03:04 GMT+0000 (Coordinated Universal Time)

1 62374U 24246A 26251.47411328 -.00000252 00000+0 00000+0 0 9994 2 62374 0.5061 310.4488 0001057 140.2820 214.0404 1.00270044 6395
UTC large
Height (km)
Speed (km/s)
/
Latitude / Longitude
Inclination (degrees)
Orbital Period (minutes)
Azimuth
Elevation
Range (km)
Doppler Factor

Next 0 passes for location: London (51.5072 / 0.1276)

No passes found over London.
TJS-12